TimeCDT,TemperatureF,Dew PointF,Humidity,Sea Level PressureIn,VisibilityMPH,Wind Direction,Wind SpeedMPH,Gust SpeedMPH,PrecipitationIn,Events,Conditions,WindDirDegrees,DateUTC
12:53 AM,27.0,21.9,81,30.43,10.0,South,6.9,-,N/A,,Clear,170,2012-10-27 05:53:00
1:53 AM,26.1,21.9,84,30.43,10.0,South,6.9,-,N/A,,Clear,170,2012-10-27 06:53:00
2:53 AM,27.0,21.9,81,30.42,10.0,South,6.9,-,N/A,,Clear,170,2012-10-27 07:53:00
3:53 AM,26.1,21.9,84,30.40,10.0,South,6.9,-,N/A,,Clear,180,2012-10-27 08:53:00
4:53 AM,26.1,21.9,84,30.39,10.0,South,8.1,-,N/A,,Clear,190,2012-10-27 09:53:00
5:53 AM,28.0,23.0,81,30.41,10.0,South,6.9,-,N/A,,Clear,190,2012-10-27 10:53:00
6:53 AM,28.9,25.0,85,30.43,10.0,South,10.4,-,N/A,,Overcast,180,2012-10-27 11:53:00
7:53 AM,30.0,24.1,79,30.41,10.0,South,9.2,-,N/A,,Overcast,170,2012-10-27 12:53:00
8:53 AM,30.0,25.0,82,30.41,10.0,South,8.1,-,N/A,,Overcast,170,2012-10-27 13:53:00
9:53 AM,32.0,26.1,79,30.40,10.0,South,10.4,-,N/A,,Partly Cloudy,170,2012-10-27 14:53:00
10:53 AM,37.0,26.1,65,30.38,10.0,South,16.1,-,N/A,,Partly Cloudy,180,2012-10-27 15:53:00
11:53 AM,39.0,26.1,60,30.37,10.0,SSW,11.5,-,N/A,,Clear,210,2012-10-27 16:53:00
12:53 PM,41.0,26.1,55,30.35,10.0,South,11.5,-,N/A,,Clear,180,2012-10-27 17:53:00
1:53 PM,46.0,27.0,47,30.29,10.0,SSW,15.0,21.9,N/A,,Clear,200,2012-10-27 18:53:00
2:53 PM,45.0,27.0,49,30.27,10.0,South,15.0,-,N/A,,Clear,180,2012-10-27 19:53:00
3:53 PM,46.0,28.0,50,30.24,10.0,SSE,11.5,-,N/A,,Scattered Clouds,160,2012-10-27 20:53:00
4:53 PM,44.1,28.0,53,30.24,10.0,South,10.4,-,N/A,,Overcast,170,2012-10-27 21:53:00
5:53 PM,44.1,28.0,53,30.25,10.0,South,10.4,-,N/A,,Overcast,170,2012-10-27 22:53:00
6:53 PM,42.1,28.0,58,30.26,10.0,South,9.2,-,N/A,,Overcast,180,2012-10-27 23:53:00
7:53 PM,41.0,28.0,60,30.27,10.0,SSE,9.2,-,N/A,,Overcast,160,2012-10-28 00:53:00
8:53 PM,37.9,28.0,68,30.27,10.0,South,10.4,-,N/A,,Clear,170,2012-10-28 01:53:00
9:53 PM,36.0,27.0,70,30.27,10.0,South,9.2,-,N/A,,Clear,170,2012-10-28 02:53:00
10:53 PM,35.6,26.6,70,30.23,10.0,South,10.4,-,N/A,,Clear,170,2012-10-28 03:53:00
11:53 PM,33.1,27.0,78,30.27,10.0,South,8.1,-,N/A,,Clear,170,2012-10-28 04:53:00